Home > Weather > Shawinigan > Past weeks

Flag for Canada Past Weather in Shawinigan, Quebec, Canada — Yesterday and Last 2 Weeks

Now
62 °F

Cool.


Feels Like: 62 °F
Forecast: 61 / 75 °F
Wind: 5 mph from North

Location: Shawinigan CS

Current Time: Jul 29, 2016 at 4:03:44 AM

Latest Report: Jul 29, 2016 at 3:00 AM


Visibility: N/A

Pressure: 29.90 "Hg

Humidity: 73%

Dew Point: 53 °F

Location of ShawiniganLocation

Past Weather in Shawinigan — Graph

°F

Shawinigan Temperature Yesterday

Maximum temperature yesterday: 79 °F (at 6:00 PM)
Minimum temperature yesterday: 64 °F (at 6:00 AM)
Average temperature yesterday: 71 °F

High & Low Weather Summary for the Past Weeks

 TemperatureHumidityPressure
High84 °F (Jul 22, 3:00 PM)97% (Jul 26, 1:00 AM)30.13 "Hg (Jul 26, 1:00 AM)
Low51 °F (Jul 19, 4:00 AM)37% (Jul 16, 1:00 PM)29.59 "Hg (Jul 14, 6:00 PM)
Average69 °F73%29.86 "Hg
* Reported Jul 14 2:00 AM — Jul 29 2:00 AM, Shawinigan, Weather by CustomWeather, © 2016

Note: Actual official high and low records may vary slightly from our data, if they occured in-between our weather recording intervals... More about our weather records

Advertising

Shawinigan Weather History for the Previous 24 Hours

Scroll right to see more
 ConditionsComfort  
Time TempWeatherWind HumidityBarometerVisibility
2:00 AM
Fri, Jul 29
60 °FCool.1 mph79%29.91 "HgN/A
1:00 AM65 °FMild.3 mph67%29.91 "HgN/A
12:00 AM66 °FMild.6 mph63%29.91 "HgN/A
11:00 PM
Thu, Jul 28
65 °FMild.6 mph80%29.90 "HgN/A
10:00 PM67 °FMild.3 mph82%29.89 "HgN/A
9:00 PM71 °FMild.5 mph74%29.88 "HgN/A
8:00 PM74 °FMild.6 mph66%29.87 "HgN/A
7:00 PM77 °FWarm.8 mph60%29.86 "HgN/A
6:00 PM79 °FWarm.7 mph51%29.85 "HgN/A
5:00 PM79 °FWarm.3 mph42%29.85 "HgN/A
4:00 PM78 °FWarm.5 mph48%29.85 "HgN/A
3:00 PM78 °FWarm.3 mph46%29.86 "HgN/A
2:00 PM77 °FWarm.5 mph45%29.87 "HgN/A
1:00 PM75 °FMild.5 mph48%29.89 "HgN/A
12:00 PM73 °FMild.7 mph54%29.89 "HgN/A
11:00 AM70 °FMild.6 mph60%29.90 "HgN/A
10:00 AM69 °FMild.5 mph66%29.89 "HgN/A
9:00 AM67 °FMild.6 mph71%29.90 "HgN/A
8:00 AM66 °FMild.5 mph74%29.89 "HgN/A
7:00 AM65 °FMild.3 mph79%29.88 "HgN/A
6:00 AM64 °FMild.2 mph80%29.87 "HgN/A
5:00 AM65 °FMild.2 mph79%29.86 "HgN/A
4:00 AM67 °FMild.3 mph76%29.85 "HgN/A
Weather by CustomWeather, © 2016

See weather overviewHow to use our weather pages